This is the latest recevied weather packets stored in our database for station/object N8JE-13. If no packets are shown the sender has not sent any weather packets the latest 10 day(s).
| Time | Temp. | Humidity | Pressure | Rain* | Wind** | Luminosity | Snow |
|---|---|---|---|---|---|---|---|
| 1778091051 | 13.89° C | 52% | 1012.6 hPa | 0 mm | - | - | - |
| 1778090750 | 13.89° C | 53% | 1012.7 hPa | 0 mm | - | - | - |
| 1778090452 | 13.89° C | 53% | 1012.8 hPa | 0 mm | - | - | - |
| 1778090152 | 13.89° C | 53% | 1012.6 hPa | 0 mm | - | - | - |
| 1778089852 | 13.89° C | 52% | 1012.8 hPa | 0 mm | - | - | - |
| 1778089551 | 13.89° C | 51% | 1012.5 hPa | 0 mm | - | - | - |
| 1778089250 | 13.89° C | 54% | 1012.6 hPa | 0 mm | - | - | - |
| 1778088950 | 13.89° C | 54% | 1012.6 hPa | 0 mm | - | - | - |
| 1778088652 | 13.89° C | 54% | 1012.7 hPa | 0 mm | - | - | - |
| 1778088351 | 13.89° C | 51% | 1012.7 hPa | 0 mm | - | - | - |
| 1778088050 | 13.33° C | 54% | 1012.7 hPa | 0 mm | - | - | - |
| 1778087750 | 13.89° C | 56% | 1012.7 hPa | 0 mm | - | - | - |
| 1778087450 | 13.89° C | 54% | 1012.7 hPa | 0 mm | - | - | - |
| 1778087152 | 13.89° C | 59% | 1012.5 hPa | 0 mm | - | - | - |
| 1778086852 | 13.33° C | 60% | 1012.5 hPa | 0 mm | - | - | - |
| 1778086551 | 13.33° C | 57% | 1012.5 hPa | 0 mm | - | - | - |
| 1778086251 | 13.33° C | 59% | 1012.4 hPa | 0 mm | - | - | - |
| 1778085951 | 13.33° C | 60% | 1012.4 hPa | 0 mm | - | - | - |
| 1778085652 | 13.33° C | 58% | 1012.6 hPa | 0 mm | - | - | - |
| 1778085352 | 13.33° C | 59% | 1012.7 hPa | 0 mm | - | - | - |
| 1778085050 | 13.33° C | 60% | 1012.8 hPa | 0 mm | - | - | - |
| 1778084751 | 13.33° C | 62% | 1012.8 hPa | 0 mm | - | - | - |
| 1778084450 | 12.78° C | 66% | 1012.6 hPa | 0 mm | - | - | - |
| 1778084150 | 12.22° C | 62% | 1012.5 hPa | 0 mm | - | - | - |
| 1778083852 | 12.78° C | 61% | 1012.5 hPa | 0 mm | - | - | - |
* Rain latest hour (hover to see other rain measurements)
** Current wind speed in m/s (hover to see current wind gust speed)